When you browse on this site, cookies collect data to enhance your experience and personalize the content and advertising you see.
Visit our Privacy Policy to learn more. By continuing to use the site, you agree to this use of cookies and data.
  • In United Kingdom
  • List of Countries
  • For 7 days
  • Water Temperature
  • Satellite Maps
  • Weather Map
  • Weather Widgets
  • user-avatar
    Login

    Hourly Weather Yangiyul

    Today, 26 March, Tuesday

    Time Temperature Precipitation Wind Pressure Humidity
    00:00 +17°C° 0 mm 3 mps 732 mmHg 34%
    01:00 +17°C° 0 mm 3 mps 732 mmHg 34%
    02:00 +17°C° 0 mm 2 mps 732 mmHg 34%
    03:00 +17°C° 0 mm 2 mps 732 mmHg 35%
    04:00 +16°C° 0 mm 2 mps 732 mmHg 35%
    05:00 +16°C° 0 mm 3 mps 731 mmHg 35%
    06:00 +17°C° 0 mm 2 mps 731 mmHg 36%
    07:00 +17°C° 0 mm 2 mps 731 mmHg 36%
    08:00 +18°C° 0 mm 2 mps 731 mmHg 37%
    09:00 +20°C° 0 mm 2 mps 731 mmHg 32%
    10:00 +24°C° 0 mm 2 mps 731 mmHg 27%
    11:00 +27°C° 0 mm 2 mps 730 mmHg 22%
    12:00 +28°C° 0 mm 2 mps 730 mmHg 20%
    13:00 +28°C° 0 mm 2 mps 730 mmHg 18%
    14:00 +29°C° 0 mm 2 mps 730 mmHg 17%
    15:00 +28°C° 0 mm 2 mps 730 mmHg 21%
    16:00 +26°C° 0 mm 3 mps 730 mmHg 25%
    17:00 +25°C° 0 mm 3 mps 730 mmHg 29%
    18:00 +22°C° 0 mm 4 mps 730 mmHg 35%
    19:00 +21°C° 0 mm 4 mps 731 mmHg 41%
    20:00 +20°C° 0 mm 4 mps 731 mmHg 47%
    21:00 +19°C° 0 mm 4 mps 731 mmHg 53%
    22:00 +18°C° 0 mm 4 mps 731 mmHg 59%
    23:00 +17°C° 0 mm 3 mps 731 mmHg 65%

    Tomorrow, 27 March, Wednesday

    Time Temperature Precipitation Wind Pressure Humidity
    00:00 +17°C° 0.4 mm 3 mps 731 mmHg 69%
    01:00 +16°C° 0.4 mm 3 mps 731 mmHg 72%
    02:00 +16°C° 0.4 mm 3 mps 731 mmHg 76%
    03:00 +16°C° 0.2 mm 2 mps 731 mmHg 75%
    04:00 +16°C° 0.2 mm 2 mps 731 mmHg 73%
    05:00 +16°C° 0.2 mm 2 mps 731 mmHg 72%
    06:00 +16°C° 0 mm 2 mps 730 mmHg 69%
    07:00 +16°C° 0 mm 2 mps 730 mmHg 66%
    08:00 +16°C° 0 mm 2 mps 730 mmHg 63%
    09:00 +18°C° 0 mm 2 mps 730 mmHg 57%
    10:00 +19°C° 0 mm 2 mps 730 mmHg 52%
    11:00 +20°C° 0 mm 2 mps 729 mmHg 47%
    12:00 +19°C° 0.5 mm 2 mps 729 mmHg 56%
    13:00 +18°C° 0.5 mm 2 mps 729 mmHg 64%
    14:00 +17°C° 0.5 mm 2 mps 729 mmHg 72%
    15:00 +17°C° 0.7 mm 2 mps 729 mmHg 73%
    16:00 +17°C° 0.7 mm 2 mps 729 mmHg 74%
    17:00 +17°C° 0.7 mm 2 mps 729 mmHg 75%
    18:00 +17°C° 0.1 mm 2 mps 729 mmHg 72%
    19:00 +17°C° 0.1 mm 3 mps 729 mmHg 70%
    20:00 +17°C° 0.1 mm 3 mps 729 mmHg 67%
    21:00 +17°C° 0.1 mm 3 mps 729 mmHg 67%
    22:00 +17°C° 0.1 mm 2 mps 729 mmHg 67%
    23:00 +17°C° 0.1 mm 2 mps 728 mmHg 67%

    Day after tomorrow, 28 March, Thursday

    Time Temperature Precipitation Wind Pressure Humidity
    00:00 +16°C° 0.1 mm 2 mps 729 mmHg 67%
    01:00 +16°C° 0.1 mm 2 mps 729 mmHg 66%
    02:00 +16°C° 0.1 mm 2 mps 729 mmHg 66%
    03:00 +16°C° 0.1 mm 1 mps 729 mmHg 67%
    04:00 +16°C° 0.1 mm 1 mps 729 mmHg 68%
    05:00 +16°C° 0.1 mm 1 mps 729 mmHg 69%
    06:00 +18°C° 0 mm 1 mps 730 mmHg 67%
    07:00 +18°C° 0 mm 1 mps 730 mmHg 66%
    08:00 +19°C° 0 mm 1 mps 731 mmHg 64%
    09:00 +20°C° 0.1 mm 1 mps 731 mmHg 61%
    10:00 +21°C° 0.1 mm 1 mps 732 mmHg 59%
    11:00 +21°C° 0.1 mm 2 mps 732 mmHg 57%
    12:00 +21°C° 0 mm 2 mps 732 mmHg 58%
    13:00 +22°C° 0 mm 3 mps 732 mmHg 59%
    14:00 +22°C° 0 mm 4 mps 731 mmHg 60%
    15:00 +22°C° 0 mm 3 mps 731 mmHg 60%
    16:00 +22°C° 0 mm 3 mps 731 mmHg 59%
    17:00 +23°C° 0 mm 2 mps 731 mmHg 59%
    18:00 +21°C° 0 mm 2 mps 731 mmHg 63%
    19:00 +20°C° 0 mm 2 mps 731 mmHg 68%
    20:00 +19°C° 0 mm 3 mps 731 mmHg 73%
    21:00 +18°C° 0.3 mm 3 mps 731 mmHg 75%
    22:00 +18°C° 0.3 mm 3 mps 731 mmHg 77%
    23:00 +17°C° 0.3 mm 3 mps 731 mmHg 79%

    29 March, Friday

    Time Temperature Precipitation Wind Pressure Humidity
    00:00 +17°C° 0.1 mm 3 mps 730 mmHg 78%
    01:00 +17°C° 0.1 mm 3 mps 729 mmHg 78%
    02:00 +17°C° 0.1 mm 3 mps 729 mmHg 77%
    03:00 +16°C° 0.3 mm 2 mps 729 mmHg 78%
    04:00 +16°C° 0.3 mm 2 mps 728 mmHg 79%
    05:00 +16°C° 0.3 mm 2 mps 728 mmHg 79%
    06:00 +16°C° 2.7 mm 2 mps 729 mmHg 83%
    07:00 +15°C° 2.7 mm 2 mps 729 mmHg 87%
    08:00 +14°C° 2.7 mm 3 mps 729 mmHg 91%
    09:00 +15°C° 3.4 mm 2 mps 729 mmHg 91%
    10:00 +15°C° 3.4 mm 2 mps 730 mmHg 91%
    11:00 +15°C° 3.4 mm 1 mps 730 mmHg 91%
    12:00 +15°C° 1.8 mm 2 mps 730 mmHg 90%
    13:00 +15°C° 1.8 mm 2 mps 730 mmHg 90%
    14:00 +15°C° 1.8 mm 2 mps 730 mmHg 89%
    15:00 +15°C° 0.1 mm 2 mps 730 mmHg 86%
    16:00 +15°C° 0.1 mm 2 mps 730 mmHg 84%
    17:00 +16°C° 0.1 mm 3 mps 730 mmHg 81%
    18:00 +14°C° 0 mm 3 mps 730 mmHg 83%
    19:00 +13°C° 0 mm 3 mps 730 mmHg 86%
    20:00 +13°C° 0 mm 3 mps 730 mmHg 88%
    21:00 +13°C° 0 mm 3 mps 730 mmHg 88%
    22:00 +13°C° 0 mm 2 mps 730 mmHg 87%
    23:00 +13°C° 0 mm 2 mps 730 mmHg 87%

    30 March, Saturday

    Time Temperature Precipitation Wind Pressure Humidity
    00:00 +12°C° 0.3 mm 3 mps 731 mmHg 86%
    01:00 +12°C° 0.3 mm 3 mps 731 mmHg 85%
    02:00 +12°C° 0.3 mm 3 mps 731 mmHg 84%
    03:00 +11°C° 0.1 mm 3 mps 732 mmHg 83%
    04:00 +12°C° 0.1 mm 2 mps 732 mmHg 81%
    05:00 +12°C° 0.1 mm 1 mps 733 mmHg 80%
    06:00 +12°C° 0 mm 1 mps 734 mmHg 77%
    07:00 +13°C° 0 mm 1 mps 734 mmHg 75%
    08:00 +13°C° 0 mm 1 mps 735 mmHg 72%
    09:00 +14°C° 0 mm 1 mps 735 mmHg 65%
    10:00 +15°C° 0 mm 1 mps 735 mmHg 58%
    11:00 +16°C° 0 mm 1 mps 735 mmHg 51%
    12:00 +16°C° 0 mm 1 mps 735 mmHg 48%
    13:00 +18°C° 0 mm 1 mps 735 mmHg 46%
    14:00 +19°C° 0 mm 1 mps 735 mmHg 43%
    15:00 +19°C° 0 mm 1 mps 735 mmHg 42%
    16:00 +19°C° 0 mm 1 mps 735 mmHg 41%
    17:00 +19°C° 0 mm 1 mps 735 mmHg 41%
    18:00 +18°C° 0 mm 1 mps 736 mmHg 45%
    19:00 +15°C° 0 mm 0 mps 736 mmHg 48%
    20:00 +14°C° 0 mm 0 mps 736 mmHg 52%
    21:00 +14°C° 0 mm 1 mps 736 mmHg 54%
    22:00 +14°C° 0 mm 1 mps 736 mmHg 55%
    23:00 +13°C° 0 mm 1 mps 736 mmHg 57%

    31 March, Sunday

    Time Temperature Precipitation Wind Pressure Humidity
    00:00 +13°C° 0 mm 2 mps 736 mmHg 57%
    01:00 +13°C° 0 mm 2 mps 736 mmHg 56%
    02:00 +13°C° 0 mm 2 mps 735 mmHg 56%
    03:00 +13°C° 0 mm 2 mps 735 mmHg 55%
    04:00 +12°C° 0 mm 2 mps 735 mmHg 53%
    05:00 +12°C° 0 mm 1 mps 735 mmHg 52%
    06:00 +13°C° 0 mm 1 mps 735 mmHg 51%
    07:00 +14°C° 0 mm 1 mps 735 mmHg 50%
    08:00 +15°C° 0 mm 1 mps 735 mmHg 49%
    09:00 +16°C° 0 mm 1 mps 735 mmHg 44%
    10:00 +19°C° 0 mm 1 mps 735 mmHg 40%
    11:00 +21°C° 0 mm 1 mps 734 mmHg 36%
    12:00 +22°C° 0 mm 1 mps 734 mmHg 33%
    13:00 +24°C° 0 mm 1 mps 733 mmHg 30%
    14:00 +25°C° 0 mm 1 mps 733 mmHg 27%
    15:00 +25°C° 0 mm 1 mps 733 mmHg 26%
    16:00 +25°C° 0 mm 1 mps 733 mmHg 26%
    17:00 +25°C° 0 mm 1 mps 732 mmHg 25%
    18:00 +23°C° 0 mm 1 mps 732 mmHg 29%
    19:00 +22°C° 0 mm 1 mps 732 mmHg 32%
    20:00 +20°C° 0 mm 1 mps 733 mmHg 36%
    21:00 +20°C° 0 mm 1 mps 733 mmHg 36%
    22:00 +19°C° 0 mm 1 mps 733 mmHg 36%
    23:00 +18°C° 0 mm 2 mps 733 mmHg 36%
    Show more